Time,TemperatureF,DewpointF,PressureIn,WindDirection,WindDirectionDegrees,WindSpeedMPH,WindSpeedGustMPH,Humidity,HourlyPrecipIn,Conditions,Clouds,dailyrainin,SoftwareType,DateUTC
2013-09-01 00:04:00,62.0,57.8,29.87,SE,140,1.0,3.0,86,0.00,,,0.00,WeatherTracker,2013-09-01 07:04:00,
2013-09-01 00:09:00,61.9,57.7,29.87,SE,140,2.0,4.0,86,0.00,,,0.00,WeatherTracker,2013-09-01 07:09:00,
2013-09-01 00:14:00,61.9,57.7,29.87,SE,140,0.0,4.0,86,0.00,,,0.00,WeatherTracker,2013-09-01 07:14:00,
2013-09-01 00:19:00,61.9,57.7,29.87,SE,140,0.0,3.0,86,0.00,,,0.00,WeatherTracker,2013-09-01 07:19:00,
2013-09-01 00:24:00,61.9,57.7,29.87,SE,140,0.0,3.0,86,0.00,,,0.00,WeatherTracker,2013-09-01 07:24:00,
2013-09-01 00:29:00,61.9,57.7,29.86,SE,140,0.0,3.0,86,0.00,,,0.00,WeatherTracker,2013-09-01 07:29:00,
2013-09-01 00:34:00,61.9,57.7,29.86,SE,144,4.0,5.0,86,0.00,,,0.00,WeatherTracker,2013-09-01 07:34:00,
2013-09-01 00:39:00,61.7,57.5,29.86,SE,144,0.0,5.0,86,0.00,,,0.00,WeatherTracker,2013-09-01 07:39:00,
2013-09-01 00:44:00,61.6,57.7,29.87,SE,144,0.0,5.0,87,0.00,,,0.00,WeatherTracker,2013-09-01 07:44:00,
2013-09-01 00:49:00,61.6,57.7,29.87,SE,138,2.0,4.0,87,0.00,,,0.00,WeatherTracker,2013-09-01 07:49:00,
2013-09-01 00:54:00,61.7,57.8,29.87,SE,139,2.0,4.0,87,0.00,,,0.00,WeatherTracker,2013-09-01 07:54:00,
2013-09-01 00:59:00,61.5,57.3,29.86,SSE,167,6.0,9.0,86,0.00,,,0.00,WeatherTracker,2013-09-01 07:59:00,
2013-09-01 01:04:00,61.4,57.2,29.86,SSE,168,5.0,9.0,86,0.00,,,0.00,WeatherTracker,2013-09-01 08:04:00,
2013-09-01 01:09:00,61.2,57.0,29.86,South,173,4.0,8.0,86,0.00,,,0.00,WeatherTracker,2013-09-01 08:09:00,
2013-09-01 01:14:00,61.2,57.0,29.86,South,172,1.0,8.0,86,0.00,,,0.00,WeatherTracker,2013-09-01 08:14:00,
2013-09-01 01:19:00,61.2,57.3,29.86,South,172,2.0,4.0,87,0.00,,,0.00,WeatherTracker,2013-09-01 08:19:00,
2013-09-01 01:24:00,61.2,57.3,29.86,South,173,0.0,3.0,87,0.00,,,0.00,WeatherTracker,2013-09-01 08:24:00,
2013-09-01 01:29:00,61.3,57.4,29.86,South,173,3.0,4.0,87,0.00,,,0.00,WeatherTracker,2013-09-01 08:29:00,
2013-09-01 01:34:00,61.3,57.4,29.86,South,172,1.0,4.0,87,0.00,,,0.00,WeatherTracker,2013-09-01 08:34:00,
2013-09-01 01:39:00,61.3,57.1,29.86,South,172,0.0,3.0,86,0.00,,,0.00,WeatherTracker,2013-09-01 08:39:00,
2013-09-01 01:44:00,61.3,57.1,29.86,South,173,0.0,3.0,86,0.00,,,0.00,WeatherTracker,2013-09-01 08:44:00,
2013-09-01 01:49:00,61.4,57.2,29.86,South,172,0.0,2.0,86,0.00,,,0.00,WeatherTracker,2013-09-01 08:49:00,
2013-09-01 01:54:00,61.4,56.8,29.86,South,173,0.0,2.0,85,0.00,,,0.00,WeatherTracker,2013-09-01 08:54:00,
2013-09-01 01:59:00,61.4,57.2,29.85,South,173,0.0,2.0,86,0.00,,,0.00,WeatherTracker,2013-09-01 08:59:00,
2013-09-01 02:04:00,61.4,57.2,29.85,South,173,0.0,2.0,86,0.00,,,0.00,WeatherTracker,2013-09-01 09:04:00,
2013-09-01 02:09:00,61.4,57.2,29.85,South,173,0.0,0.0,86,0.00,,,0.00,WeatherTracker,2013-09-01 09:09:00,
2013-09-01 02:15:00,61.3,57.1,29.85,South,173,0.0,0.0,86,0.00,,,0.00,WeatherTracker,2013-09-01 09:15:00,
2013-09-01 02:20:00,61.3,57.1,29.85,South,173,1.0,3.0,86,0.00,,,0.00,WeatherTracker,2013-09-01 09:20:00,
2013-09-01 02:25:00,61.3,57.1,29.85,South,173,1.0,3.0,86,0.00,,,0.00,WeatherTracker,2013-09-01 09:25:00,
2013-09-01 02:30:00,61.3,57.1,29.85,South,172,0.0,2.0,86,0.00,,,0.00,WeatherTracker,2013-09-01 09:30:00,
2013-09-01 02:35:00,61.3,57.1,29.85,South,173,0.0,2.0,86,0.00,,,0.00,WeatherTracker,2013-09-01 09:35:00,
2013-09-01 02:40:00,61.2,57.0,29.85,South,172,0.0,0.0,86,0.00,,,0.00,WeatherTracker,2013-09-01 09:40:00,
2013-09-01 02:45:00,61.3,57.1,29.85,South,173,0.0,0.0,86,0.00,,,0.00,WeatherTracker,2013-09-01 09:45:00,
2013-09-01 02:50:00,61.2,57.0,29.85,South,173,0.0,0.0,86,0.00,,,0.00,WeatherTracker,2013-09-01 09:50:00,
2013-09-01 02:55:00,60.9,56.7,29.85,South,173,3.0,8.0,86,0.00,,,0.00,WeatherTracker,2013-09-01 09:55:00,
2013-09-01 03:00:00,60.9,56.7,29.85,South,173,3.0,8.0,86,0.00,,,0.00,WeatherTracker,2013-09-01 10:00:00,
2013-09-01 03:05:00,60.7,56.2,29.85,South,190,6.0,10.0,85,0.00,,,0.00,WeatherTracker,2013-09-01 10:05:00,
2013-09-01 03:10:00,60.5,56.3,29.85,SSW,196,5.0,10.0,86,0.00,,,0.00,WeatherTracker,2013-09-01 10:10:00,
2013-09-01 03:15:00,60.4,56.2,29.86,SSW,198,6.0,10.0,86,0.00,,,0.00,WeatherTracker,2013-09-01 10:15:00,
2013-09-01 03:20:00,60.4,56.2,29.86,SSW,197,3.0,10.0,86,0.00,,,0.00,WeatherTracker,2013-09-01 10:20:00,
2013-09-01 03:25:00,60.6,56.4,29.86,SSW,196,0.0,10.0,86,0.00,,,0.00,WeatherTracker,2013-09-01 10:25:00,
2013-09-01 03:30:00,60.6,56.4,29.86,SSW,196,0.0,5.0,86,0.00,,,0.00,WeatherTracker,2013-09-01 10:30:00,
2013-09-01 03:35:00,60.5,56.3,29.86,SSW,197,0.0,2.0,86,0.00,,,0.00,WeatherTracker,2013-09-01 10:35:00,
2013-09-01 03:40:00,60.5,56.3,29.86,SSW,197,0.0,2.0,86,0.00,,,0.00,WeatherTracker,2013-09-01 10:40:00,
2013-09-01 03:46:00,60.5,56.3,29.85,SSW,197,0.0,0.0,86,0.00,,,0.00,WeatherTracker,2013-09-01 10:46:00,
2013-09-01 03:51:00,60.5,56.3,29.85,SSW,197,0.0,0.0,86,0.00,,,0.00,WeatherTracker,2013-09-01 10:51:00,
2013-09-01 03:56:00,60.5,56.6,29.85,SSW,196,0.0,0.0,87,0.00,,,0.00,WeatherTracker,2013-09-01 10:56:00,
2013-09-01 04:01:00,60.2,56.0,29.85,SSW,196,3.0,7.0,86,0.00,,,0.00,WeatherTracker,2013-09-01 11:01:00,
2013-09-01 04:06:00,60.1,56.2,29.85,SSW,196,0.0,7.0,87,0.00,,,0.00,WeatherTracker,2013-09-01 11:06:00,
2013-09-01 04:11:00,60.1,56.2,29.85,SSW,196,0.0,5.0,87,0.00,,,0.00,WeatherTracker,2013-09-01 11:11:00,
2013-09-01 04:16:00,60.2,56.3,29.85,SSW,196,0.0,0.0,87,0.00,,,0.00,WeatherTracker,2013-09-01 11:16:00,
2013-09-01 04:21:00,60.3,56.4,29.85,SSW,196,0.0,1.0,87,0.00,,,0.00,WeatherTracker,2013-09-01 11:21:00,
2013-09-01 04:26:00,60.3,56.4,29.85,SSW,196,0.0,1.0,87,0.00,,,0.00,WeatherTracker,2013-09-01 11:26:00,
2013-09-01 04:31:00,60.2,56.3,29.85,SSW,196,0.0,0.0,87,0.00,,,0.00,WeatherTracker,2013-09-01 11:31:00,
2013-09-01 04:36:00,60.2,56.3,29.85,SSW,196,0.0,0.0,87,0.00,,,0.00,WeatherTracker,2013-09-01 11:36:00,
2013-09-01 04:41:00,60.2,56.3,29.85,SSW,196,0.0,0.0,87,0.00,,,0.00,WeatherTracker,2013-09-01 11:41:00,
2013-09-01 04:46:00,60.3,56.4,29.85,SSW,196,0.0,0.0,87,0.00,,,0.00,WeatherTracker,2013-09-01 11:46:00,
2013-09-01 04:51:00,60.3,56.7,29.85,SSW,196,1.0,2.0,88,0.00,,,0.00,WeatherTracker,2013-09-01 11:51:00,
2013-09-01 04:56:00,60.4,56.8,29.85,SSW,196,0.0,2.0,88,0.00,,,0.00,WeatherTracker,2013-09-01 11:56:00,